Theta_e
330 324 324 322 309 307 302 302 306 304 306 310 315 311 309 310 307 305 332 342 343 344 345 347 350 351 352 351 349 349 347 343 343 341 340 340 339 339 340 340 342 343 340 345 343 342 339 338 337
322 321 322 317 304 300 300 304 302 306 309 310 310 311 309 308 318 324 334 342 343 344 345 346 347 351 352 350 349 349 346 344 342 341 340 338 338 338 338 339 340 341 341 345 344 341 339 336 335
321 319 316 310 305 300 300 304 305 308 310 309 308 313 312 311 320 327 338 342 344 344 345 347 347 351 351 349 347 347 347 344 341 340 338 336 336 336 337 338 339 340 344 344 342 340 337 335 334
319 317 314 304 302 304 304 305 307 308 308 309 310 308 315 321 323 332 340 343 343 344 345 344 348 351 352 350 348 348 347 343 341 339 337 335 334 334 336 337 337 341 342 341 340 338 335 333 331
319 315 305 303 302 304 306 307 307 307 307 307 310 307 310 321 329 332 339 343 342 343 345 348 347 348 349 349 348 347 347 344 341 339 337 334 332 332 334 335 337 340 339 337 335 332 331 329 329
311 312 302 300 302 304 306 308 307 307 308 308 308 308 311 324 326 332 339 341 344 343 345 346 341 343 347 348 347 346 346 344 341 339 337 333 331 331 333 334 335 337 335 332 330 328 327 327 327
310 306 302 303 301 302 305 309 307 307 307 306 310 306 314 319 325 331 337 338 343 342 343 345 346 344 338 341 342 342 344 342 341 340 338 334 332 332 333 334 334 333 331 328 326 325 326 326 326
311 308 302 303 301 301 307 308 309 308 307 311 312 305 308 317 326 331 335 336 339 341 342 342 345 345 343 346 335 337 340 339 340 338 334 330 330 329 329 329 331 330 327 325 323 324 325 325 324
309 303 300 301 301 302 307 306 307 309 308 308 311 311 315 322 328 330 333 334 336 338 340 341 342 342 341 343 340 334 334 335 334 332 328 325 326 324 324 325 327 326 324 322 323 323 322 321 321
307 302 302 305 305 303 305 306 307 305 306 306 308 312 312 323 326 327 329 330 332 335 339 340 342 342 342 342 343 344 342 341 339 336 330 334 330 330 325 321 323 324 322 321 321 321 322 321 319
305 302 304 302 303 304 305 304 307 305 304 308 307 310 311 320 323 324 327 329 331 335 337 339 341 342 343 343 343 343 343 342 341 335 333 333 330 326 327 322 321 320 317 317 316 317 318 318 318
300 302 302 303 303 303 303 306 304 305 307 310 311 312 312 314 320 322 324 327 329 331 335 338 340 341 343 344 343 343 345 344 341 335 334 331 328 328 324 323 322 320 321 319 319 318 318 316 315
301 302 302 303 303 303 303 303 304 305 309 311 309 308 310 311 316 321 324 327 329 330 333 337 340 340 342 343 342 342 341 342 342 336 333 330 329 326 324 321 320 320 320 319 317 316 314 313 311
304 303 303 304 304 304 301 303 303 305 308 308 309 308 309 310 312 316 321 324 327 331 332 335 337 339 339 341 341 341 341 342 341 341 335 333 330 327 323 321 318 318 319 316 314 313 311 309 307
303 300 303 303 304 302 304 300 301 307 308 306 307 308 308 310 311 312 318 322 326 330 332 333 334 337 338 338 338 339 341 340 340 341 338 334 330 326 324 319 318 317 317 314 313 310 308 304 302
301 301 296 302 302 302 302 296 305 306 306 306 307 309 309 310 310 311 314 320 325 328 330 333 331 333 334 334 336 337 338 339 339 339 339 335 332 327 323 320 318 318 318 312 309 305 304 302 299
300 294 297 298 302 301 301 298 304 306 305 305 307 309 309 310 311 312 312 316 321 325 328 331 330 328 330 332 333 333 334 336 338 334 336 337 332 329 324 320 318 317 314 310 309 302 301 296 296
295 295 296 296 299 299 299 299 303 305 305 305 306 307 308 308 310 312 312 313 316 323 328 328 328 327 328 329 329 330 331 332 333 332 331 335 333 329 327 320 317 315 312 307 302 300 298 295 294
297 295 294 297 300 297 297 298 300 304 304 304 305 306 307 308 311 313 314 313 313 317 323 325 325 325 325 325 323 324 324 326 324 325 327 330 330 329 327 322 316 312 307 305 301 298 295 295 293
297 294 294 298 300 296 297 297 301 302 303 304 305 306 307 308 309 312 313 313 312 312 317 320 322 322 322 322 321 321 320 321 322 320 317 322 324 326 323 318 314 311 307 306 300 296 293 293 293
295 294 294 294 298 298 296 295 298 302 304 304 305 307 307 307 308 310 311 312 312 311 313 314 317 318 318 319 319 318 317 318 316 315 312 309 312 319 319 316 313 310 306 304 297 294 293 289 292
291 298 296 295 293 289 296 287 296 299 300 303 305 306 307 308 310 309 309 311 311 312 313 313 314 315 316 318 317 316 313 311 312 313 312 305 307 309 313 313 311 308 307 303 297 295 296 293 290
294 297 296 295 293 292 293 289 294 299 297 300 304 307 308 309 308 308 308 309 310 312 312 313 312 313 315 317 316 316 312 313 315 316 314 307 302 303 306 308 307 307 305 302 298 296 297 295 295
297 296 295 294 293 286 291 291 292 296 299 301 304 304 305 306 307 306 304 304 306 308 309 311 310 310 313 314 315 314 312 313 314 313 309 305 301 299 299 301 303 303 302 300 298 296 297 296 297
296 293 286 286 285 285 293 291 294 299 301 302 303 307 305 306 307 307 306 304 304 305 306 307 308 308 311 313 313 312 313 313 313 312 309 304 299 294 296 298 298 301 302 302 300 297 297 297 298
293 293 288 284 284 287 290 286 293 302 304 304 305 306 306 305 306 306 306 305 304 304 305 306 307 307 309 310 311 311 312 312 313 312 311 308 304 301 299 297 298 299 298 299 298 297 297 297 297
293 289 295 290 288 285 289 294 299 302 302 303 304 304 305 305 306 306 305 304 304 304 305 306 306 307 308 309 310 309 310 310 311 311 312 311 309 305 300 296 294 295 296 297 297 296 296 297 296
295 297 287 289 284 282 287 291 292 298 300 302 303 304 305 306 306 304 303 303 303 304 305 306 306 306 307 308 308 308 309 309 310 310 308 306 304 299 295 292 291 291 291 293 295 294 292 291 292
291 291 292 293 291 287 285 290 301 301 302 302 305 305 305 306 304 303 303 302 303 303 304 305 305 305 306 307 306 307 307 308 308 306 304 301 298 293 291 289 287 287 288 289 291 290 290 289 288
296 293 293 288 287 290 289 289 301 300 300 300 303 303 305 305 304 304 303 302 302 302 303 304 305 305 305 306 305 305 305 304 303 302 300 296 292 289 288 286 285 285 286 287 289 288 288 287 285
Wind_Speed
12 8 5 6 6 4 2 4 2 4 5 4 1 2 4 6 7 5 5 7 15 14 15 14 10 10 12 13 12 12 11 11 12 12 13 13 13 13 13 12 10 12 13 13 18 19 19 19 19
6 5 5 2 6 4 7 5 5 5 6 3 3 5 5 2 3 8 11 7 14 13 14 14 11 11 12 13 12 12 12 13 12 13 13 13 13 13 13 12 10 12 10 17 19 19 18 18 18
5 4 5 3 3 4 4 2 4 5 4 4 3 3 5 3 3 10 10 12 14 13 13 13 11 12 13 13 13 11 13 13 12 13 13 12 13 13 13 12 13 11 14 18 19 19 17 17 17
4 4 4 7 3 2 3 3 5 8 4 2 2 5 3 3 6 6 11 12 13 12 12 15 11 12 12 12 13 12 13 14 13 13 13 13 13 13 13 13 12 12 17 18 19 19 17 17 17
5 4 6 5 3 2 1 2 6 7 4 5 5 2 1 5 6 6 11 11 13 13 10 13 10 11 11 12 13 12 13 14 14 13 13 13 14 14 14 14 13 15 19 18 18 16 17 17 17
5 5 7 8 5 2 2 5 7 7 6 5 5 7 2 8 9 9 11 11 13 12 10 12 10 10 11 11 12 12 13 14 13 13 13 13 14 14 15 15 14 17 18 17 17 17 18 18 17
9 7 11 5 5 4 4 7 8 7 8 8 1 5 5 10 10 10 11 11 12 11 9 11 13 12 8 9 11 13 13 14 14 13 12 12 12 13 13 13 15 17 17 17 17 18 19 19 18
6 6 10 8 8 7 6 8 3 7 8 6 1 5 4 11 11 10 11 12 13 9 11 10 11 12 12 11 9 11 12 13 13 13 12 12 11 12 12 12 14 17 17 17 18 19 19 18 16
2 6 9 11 7 5 6 9 4 4 6 4 7 4 4 10 11 11 11 12 12 11 11 11 12 12 13 12 11 10 12 13 12 11 12 13 10 11 12 12 14 17 18 18 18 18 18 17 13
7 9 11 3 6 5 5 8 7 6 10 11 10 8 6 11 12 14 15 14 15 15 14 12 12 13 12 9 12 12 9 10 11 10 10 3 6 7 11 11 12 15 17 19 18 17 13 10 7
4 9 3 2 3 2 3 5 4 7 13 9 12 13 13 13 14 15 16 16 16 15 13 14 13 13 13 9 8 6 6 6 7 10 7 4 5 8 8 7 8 9 10 8 11 9 6 8 6
7 4 4 2 1 1 5 2 6 14 15 5 6 4 15 16 16 17 17 17 16 17 17 15 16 14 13 9 8 8 8 8 7 9 9 7 5 5 7 5 7 7 6 8 6 5 8 10 10
8 2 3 2 2 4 3 8 10 15 12 13 5 3 10 15 16 16 16 15 16 17 16 17 16 14 13 13 11 10 9 9 10 10 10 8 7 7 7 7 6 5 4 6 6 7 7 8 10
3 4 5 4 6 5 6 9 2 8 4 14 14 14 13 14 16 15 16 17 17 16 16 17 17 15 14 12 13 10 10 10 10 10 11 12 9 8 8 7 7 7 7 5 7 8 8 7 7
1 6 6 9 6 4 3 11 17 17 13 10 10 13 15 16 15 17 17 17 18 16 17 17 18 16 16 15 12 9 8 9 9 9 12 12 11 10 10 8 6 7 9 10 9 8 8 7 7
5 3 8 7 5 3 5 12 5 2 5 12 13 14 15 17 17 17 16 16 17 17 18 17 12 16 16 14 11 9 9 8 5 9 10 14 14 13 10 8 7 7 8 6 8 7 8 7 7
6 8 8 3 3 2 9 10 3 1 5 10 11 11 12 14 16 18 17 17 18 19 18 17 18 18 16 14 10 10 11 8 8 5 7 13 14 15 11 9 9 8 8 7 9 6 7 7 8
9 8 6 9 5 4 10 19 17 16 18 19 18 18 18 18 17 16 18 17 17 17 17 17 15 17 16 11 10 8 7 7 4 6 6 12 11 14 12 9 10 11 8 7 7 8 8 8 10
7 9 13 13 3 3 15 21 21 17 18 21 20 19 20 20 17 15 14 15 15 16 17 19 18 17 13 11 10 10 10 8 6 4 8 9 7 13 13 11 13 11 10 10 11 8 12 9 10
10 13 16 14 7 3 16 20 23 21 22 23 23 23 22 19 17 13 15 14 15 17 18 17 17 17 15 10 9 9 9 9 9 6 5 6 7 8 10 12 12 13 10 13 14 11 7 6 10
14 15 14 16 10 13 13 17 18 13 11 15 19 20 20 19 17 13 13 16 14 15 16 16 17 17 15 14 9 8 6 6 7 8 5 4 4 8 10 12 12 13 12 13 15 14 13 9 10
11 9 13 13 7 9 2 12 16 19 19 15 16 19 16 15 11 10 11 11 14 13 12 15 15 16 15 16 11 14 10 10 9 9 7 5 5 5 8 11 13 14 11 14 14 14 12 10 10
3 3 4 3 8 13 13 12 7 10 10 14 17 13 8 4 4 4 5 7 8 8 9 10 13 14 14 14 13 10 12 8 7 7 9 7 4 5 5 8 10 12 9 10 14 15 10 9 9
12 7 4 2 4 11 12 14 11 12 11 12 11 3 3 5 5 5 4 2 5 5 7 9 13 14 13 13 14 13 13 10 7 8 7 5 5 4 5 6 9 10 10 12 13 11 10 9 6
11 8 4 5 6 12 3 9 17 11 16 15 16 5 7 7 6 3 6 6 6 7 8 9 11 13 13 13 13 14 13 12 12 10 8 9 7 4 7 9 9 10 11 12 12 14 13 10 9
15 12 7 7 8 12 7 11 7 10 8 11 16 13 7 8 8 5 4 5 6 7 9 9 10 11 13 14 14 12 13 8 9 11 9 8 8 8 10 10 9 10 10 10 11 9 8 9 7
9 12 14 13 2 5 11 23 22 11 13 12 13 13 14 10 7 5 5 5 5 6 7 8 9 10 12 13 11 12 11 12 11 12 10 7 9 7 10 11 10 10 11 11 12 9 10 9 8
9 3 6 7 6 9 14 16 12 8 13 13 14 14 10 7 6 5 4 5 4 5 6 7 8 9 10 11 11 10 12 12 11 9 9 8 8 9 11 10 10 10 9 9 11 8 8 7 5
10 8 8 6 8 5 10 13 4 9 7 8 9 8 8 9 9 8 6 5 5 4 5 7 8 9 10 10 10 10 10 10 10 8 8 9 8 9 9 10 9 10 10 9 10 9 11 12 10
15 17 21 9 9 8 8 21 5 6 5 6 8 4 1 7 8 8 6 6 6 5 6 7 8 9 9 9 10 10 10 9 9 8 8 7 7 6 7 7 7 7 9 10 11 11 12 14 15
Wind_Direction
257 248 263 244 245 234 133 124 21 150 168 85 229 250 334 5 353 21 154 113 131 149 142 159 151 149 137 133 129 121 118 114 103 97 94 90 90 94 90 83 78 88 90 100 95 89 84 77 72
286 266 234 262 259 257 88 101 189 180 72 145 173 228 262 66 68 113 151 159 145 148 147 159 150 144 139 138 137 133 126 112 107 103 99 97 97 96 95 96 92 91 96 103 94 89 86 81 76
268 274 257 259 282 350 27 110 150 108 134 192 210 260 330 49 109 146 110 160 149 150 155 139 149 147 147 147 147 138 124 116 113 108 105 105 100 98 100 99 91 96 98 95 94 89 84 81 78
241 197 221 255 288 45 321 92 115 149 155 194 276 229 152 48 152 132 151 162 158 156 159 134 149 152 148 148 151 143 130 125 122 118 115 110 107 106 103 100 100 92 93 90 90 86 84 82 79
224 253 244 237 267 307 190 113 162 177 165 181 199 241 249 160 111 146 160 171 170 163 144 152 155 156 155 154 153 147 137 131 128 123 119 115 113 112 109 108 103 90 91 91 87 92 89 83 79
224 272 238 235 205 164 214 166 177 211 190 133 221 256 78 131 164 163 165 179 179 170 134 156 159 157 157 158 155 150 142 134 131 128 123 120 116 113 112 109 105 94 93 99 101 97 92 87 83
260 227 249 283 265 255 218 167 191 205 199 211 325 259 84 170 176 164 172 183 182 169 160 160 173 174 161 161 157 152 147 139 137 134 126 118 113 111 110 110 109 106 107 104 100 96 93 88 85
279 261 247 246 262 257 136 180 195 224 220 95 253 245 194 164 164 174 176 182 186 160 178 175 175 176 178 173 159 156 149 144 139 128 121 113 104 102 100 103 108 111 109 106 103 100 96 91 82
274 250 240 242 250 260 136 203 171 41 234 195 186 268 79 130 161 178 176 185 192 172 191 183 181 180 181 177 167 163 157 147 138 134 135 148 135 129 143 96 115 116 115 111 106 103 100 91 71
235 232 251 338 292 289 176 229 182 205 209 223 219 208 157 163 179 184 189 191 196 190 194 193 188 184 185 178 163 179 166 166 164 158 160 165 140 135 124 113 111 117 117 116 114 117 134 129 107
190 244 345 265 278 284 247 227 216 233 246 230 238 215 185 186 194 200 200 201 199 197 199 202 192 190 188 170 172 171 175 177 168 158 164 137 105 123 136 133 133 128 133 130 133 146 106 101 96
241 246 272 19 111 240 235 321 243 236 250 1 284 256 173 197 201 207 207 208 199 201 199 197 202 194 188 182 182 182 180 191 169 168 161 152 147 142 138 155 142 157 157 149 137 119 119 109 97
235 212 225 194 195 250 296 255 266 271 254 257 213 234 216 208 217 216 219 214 210 204 201 195 206 202 198 187 189 192 194 182 176 170 166 165 161 161 159 150 159 156 134 146 130 128 118 113 110
46 251 258 244 235 228 254 265 323 255 275 250 238 234 228 224 224 223 215 217 213 208 202 201 201 201 207 198 199 188 196 198 188 180 178 179 171 165 161 161 158 164 153 140 140 138 123 109 107
260 273 235 235 227 239 244 252 237 256 242 249 243 243 247 236 231 228 219 219 214 211 204 202 199 200 201 204 208 209 196 204 185 193 183 171 171 169 162 157 164 156 150 155 137 131 125 121 112
235 241 254 98 178 149 225 265 273 108 271 258 258 255 245 235 233 233 228 217 218 212 209 200 194 200 201 201 200 209 216 201 196 190 188 181 181 172 163 160 164 161 159 138 143 149 135 135 125
205 261 211 243 201 170 220 284 297 346 262 268 268 264 257 250 238 231 224 222 212 212 204 204 197 201 199 203 202 209 215 209 190 201 196 192 185 178 169 167 156 161 150 152 157 142 142 135 124
257 222 223 265 128 230 252 264 268 275 277 274 272 271 264 254 241 234 219 217 218 211 207 205 201 201 198 196 203 209 207 218 218 182 209 208 183 184 176 161 162 159 150 153 141 159 139 150 138
288 284 279 279 143 253 265 276 277 278 277 272 269 265 263 260 253 235 221 205 211 211 208 207 203 201 194 194 195 202 205 201 206 219 198 202 185 190 181 167 159 161 161 169 153 166 145 147 136
242 263 270 282 326 224 278 275 281 273 261 264 271 269 267 267 261 236 220 206 205 209 205 206 206 200 201 196 197 204 206 202 210 200 218 201 184 186 175 164 168 169 156 163 151 153 148 170 171
238 253 263 271 301 245 275 274 254 255 249 262 263 265 267 266 269 262 224 205 210 217 213 209 204 200 201 202 195 196 208 193 203 207 207 189 182 181 169 169 172 173 164 162 162 164 169 165 195
256 249 250 273 290 283 64 287 293 288 274 256 262 261 262 260 255 253 252 228 211 219 215 210 210 204 199 197 199 200 198 202 207 203 200 172 173 172 166 175 173 174 175 169 175 176 168 163 185
244 98 195 223 253 300 262 258 266 250 245 257 259 266 275 286 291 268 252 238 238 203 210 212 211 207 200 200 204 196 209 217 207 199 186 181 165 160 175 163 165 169 178 179 179 172 179 172 178
134 117 123 183 259 260 254 236 269 242 240 262 274 160 196 154 135 132 121 192 205 189 198 203 205 203 202 203 206 208 217 222 209 191 190 188 166 165 163 160 167 173 166 174 174 178 175 182 165
201 176 223 228 198 254 46 265 246 293 276 265 275 257 174 186 203 213 186 175 173 182 186 197 204 202 202 202 211 216 222 221 220 200 194 185 175 176 187 179 170 181 180 179 179 175 179 187 187
199 204 210 233 246 277 103 239 240 239 276 265 252 263 248 238 263 231 185 173 173 181 183 187 198 203 201 206 210 217 218 220 213 213 199 199 197 186 177 190 187 182 179 172 172 175 186 178 186
171 217 252 272 6 279 255 271 271 217 242 252 243 252 252 265 246 216 196 177 172 178 190 188 193 207 203 209 211 217 215 218 216 219 207 201 195 185 179 185 183 185 182 179 174 174 176 181 192
226 203 179 211 230 237 257 256 260 241 244 259 251 247 237 206 184 177 162 159 166 179 186 194 202 206 213 206 215 217 213 216 218 218 209 203 193 175 178 171 177 175 171 173 175 172 162 153 166
183 213 218 242 221 257 277 257 336 337 19 318 290 296 223 201 163 161 157 166 175 192 199 201 201 208 213 209 216 217 218 212 217 212 209 205 184 176 172 171 170 168 169 171 177 178 163 162 164
240 222 214 210 194 222 255 267 71 51 6 328 305 313 187 163 154 154 164 184 186 200 214 223 216 209 215 216 217 219 219 213 215 205 204 180 177 155 155 153 159 163 172 173 181 180 173 167 159